Tracking 23758 objects as of 26-Oct-2021
HD Live streaming from Space Station
objects crossing your sky now

MMSATS-1

Track MMSATS-1 now!
10-day predictions


NORAD ID: 47976
Int'l Code: 1998-067SJ
Perigee: 418.7 km
Apogee: 421.8 km
Inclination: 51.6 °
Period: 92.8 minutes
Semi major axis: 6791 km
RCS: Unknown
Launch date: November 20, 1998
Source: (MMR)
Launch site: TYURATAM MISSILE AND SPACE COMPLEX (TTMTR)
aabbcc
Your satellite tracking list
Your tracking list is empty




NASA's NSSDC Master Catalog

Two Line Element Set (TLE):
1 47976U 98067SJ  21299.60864609  .00007015  00000-0  12530-3 0  9992
2 47976  51.6465  50.8843 0002273 205.9628 154.1250 15.51228299 33891
Source of the keplerian elements: AFSPC